Regional Weather Roundup
Issued by NWS Newport/Morehead, NC

Current Version | Previous Version | Text Only | Print | Product List | Glossary Off
Versions: 1 2 3 4 5 6 7 8 9 10 11 12 13 14 15 16 17 18 19 20 21 22 23 24 25 26 27 28 29 30 31 32 33 34 35 36 37 38 39 40 41 42 43 44 45 46 47 48 49 50
685 ASUS42 KMHX 051625 RWRMHX WEATHER ROUNDUP FOR EASTERN NORTH CAROLINA NATIONAL WEATHER SERVICE NEWPORT/MOREHEAD CITY NC 1100 AM EST FRI FEB 05 2016 NOTE: "FAIR" INDICATES FEW OR NO CLOUDS BELOW 12,000 FEET WITH NO SIGNIFICANT WEATHER AND/OR OBSTRUCTIONS TO VISIBILITY NCZ015>017-031-032-045>047-102-103-051700- NORTH COAST CITY SKY/WX TMP DP RH WIND PRES REMARKS EDENTON CLOUDY 42 34 72 N15G26 30.28R ELIZABETH CITY CLOUDY 39 34 82 NW18G26 30.25R KITTY HAWK DRIZZLE 38 35 89 N12G25 30.21R MANTEO DRIZZLE 38 36 92 N15G25 30.24R $$ NCZ045>047-081-094-103-104-051700- CENTRAL COAST CITY SKY/WX TMP DP RH WIND PRES REMARKS FRISCO CLOUDY N/A N/A N/A N12G29 30.22R SWANQUARTER N/A 41 N/A N/A N13G23 30.24R $$ NCZ095-097-098-100-101-051700- SOUTHERN COAST CITY SKY/WX TMP DP RH WIND PRES REMARKS BEAUFORT CLOUDY 42 34 73 N18G25 30.26R CEDAR ISLAND N/A 41 N/A N/A NW33G40 30.30S JACKSONVILLE PTSUNNY 46 32 58 N20G28 30.28R PINEY ISLAND NOT AVBL WILMINGTON PTSUNNY 47 33 58 N16G26 30.28R $$ NCZ011>013-027>030-043-044-078>080-089-090>093-098-051700- COASTAL PLAIN CITY SKY/WX TMP DP RH WIND PRES REMARKS AHOSKIE CLOUDY 40 29 66 NW7 30.30R CLINTON PTSUNNY 43 32 64 NW13G18 30.34R ELIZABETHTOWN CLOUDY 44 31 61 NW7 30.32S GOLDSBORO CLOUDY 43 36 75 NW16 30.31R GREENVILLE CLOUDY 43 32 65 N14G21 30.31R HAZE HAVELOCK CLOUDY 45 34 65 N18G29 30.27R KENANSVILLE N/A 42 32 69 NW10G20 30.34R KINSTON PTSUNNY 43 32 65 N15 30.31R NEW BERN CLOUDY 44 32 62 N14G28 30.29R RICHLANDS PTSUNNY 45 28 53 N14G24 30.30R ROCKY MOUNT CLOUDY 42 32 67 NW14G22 30.32R WASHINGTON CLOUDY 42 32 68 N14G21 30.29R WHITEVILLE PTSUNNY 44 31 60 N8 30.31R $$ AMZ130-135-150-152-154-156-158-170-250-252-270-ANZ085-086-088-633-658-670-051700- MARINE OBSERVATIONS STATION/POSITION TIME TEMP WIND PRES WAVE SWELL AIR SEA DIR/SP/G HT/PER HT/PER (UTC) (F) (DEG/KT/KT) (MB) (FT/S) (FT/S) CHESAPEAKE LIGHT 1600 39 340/ 30/ 32 1023.0 64 E VA BEACH 1550 42 53 350/ 29/ 39 1019.3 13/ 9 DUCK 1600 39 46 340/ 25/ 29 1022.4 2 E DUCK 1611 45 N/A 8/ 7 2/11 OREGON INLET 1600 39 48 320/ 20/ 24 1023.0 13E OREGON INLT 1600 47 N/A 13/ 8 2/11 HATTERAS CG 1600 42 54 330/ 29/ 34 1023.0 DIAMOND BUOY 1550 69 340/ 29/ 37 1021.8 9/ 6 2/15 CAPE LOOKOUT NOT AVBL BEAUFORT LAB 1600 42 54 360/ 18/ 23 1023.7 30 SE NEW RVR IN 1608 43 64 1022.5 30 SE NEW RVR IN 1525 64 N/A 7/ 6 27 SE WRIGHTSVLE 1608 47 360/ 21/ 31 1024.0 5 SE WRIGHTSVLE 1508 46 54 350/ 19/ 23 1025.1 225 S CAPE HAT 1550 62 69 320/ 27/ 33 N/A 9/ 7 41 SE CHARLESTON 1550 49 68 10/ 23/ 29 1024.8 9/ 7 2/11 $$

USA.gov is the U.S. government's official web portal to all federal, state and local government web resources and services.